Eagle Creek, IN

2:17 PM EDT on March 25, 2017 (GMT -0400)
Eagle Creek

Weather History for KEYE - April, 2013

Change the Weather History Date:

Sunday, April 14, 2013

  Actual Average Record
Temperature  
Mean Temperature 55 °F 53 °F  
Max Temperature 71 °F 62 °F 80 °F (2003)
Min Temperature 38 °F 43 °F 28 °F (1997)
Degree Days  
Heating Degree Days 10 13  
Month to date heating degree days 204 207  
Since 1 July heating degree days 5244 5032  
Cooling Degree Days 0 1  
Month to date cooling degree days 3 4  
Year to date cooling degree days 3 5  
Growing Degree Days 4 (Base 50)    
Moisture  
Dew Point 39 °F    
Average Humidity 56    
Maximum Humidity 79    
Minimum Humidity 33    
Precipitation  
Precipitation T in 0.12 in 2.24 in (2006)
Month to date precipitation 0.69 1.63  
Year to date precipitation 9.09 9.27  
Sea Level Pressure  
Sea Level Pressure 29.92 in    
Wind  
Wind Speed 8 mph (SE)    
Max Wind Speed 17 mph    
Max Gust Speed 23 mph    
Visibility 10 miles    
Events Rain    
T = Trace of Precipitation, MM = Missing Value Source: NWS Daily Summary

Daily Weather History Graph

Daily Weather History Graph

Search for Another Location

Airport or City:

Trip Planner

Search our weather history database for the weather conditions in past years. The results will help you decide how hot, cold, wet, or windy it might be!

Date:

Astronomy

Apr. 14, 2013 Rise Set
Actual Time 7:08 AM EDT 8:22 PM EDT
Civil Twilight 6:40 AM EDT 8:50 PM EDT
Nautical Twilight 6:07 AM EDT 9:24 PM EDT
Astronomical Twilight 5:32 AM EDT 9:59 PM EDT
Moon 9:45 AM EDT (4/14) No Moon Set
Length of Visible Light 14h 09m
Length of Day
13h 14m
Waxing Crescent, 17% of the Moon is Illuminated
Apr 14
Waxing Crescent
Apr 18
First Quarter
Apr 25
Full
May 2
Last Quarter
May 9
New

Hourly Weather History & Observations

Time (EDT) Temp. Windchill Dew Point Humidity Pressure Visibility Wind Dir Wind Speed Gust Speed Precip Events Conditions
12:53 AM 41.0 °F - 34.0 °F 76% 30.01 in 10.0 mi Calm Calm - N/A   Clear
1:53 AM 39.9 °F - 34.0 °F 79% 30.01 in 10.0 mi Calm Calm - N/A   Scattered Clouds
2:53 AM 39.9 °F 36.7 °F 33.1 °F 77% 30.01 in 10.0 mi ESE 4.6 mph - N/A   Scattered Clouds
3:53 AM 42.1 °F 39.2 °F 35.1 °F 76% 30.01 in 10.0 mi East 4.6 mph - N/A   Overcast
4:53 AM 42.1 °F 39.2 °F 35.1 °F 76% 30.03 in 10.0 mi ESE 4.6 mph - N/A   Overcast
5:53 AM 42.1 °F 39.2 °F 37.0 °F 82% 30.01 in 10.0 mi ESE 4.6 mph - 0.00 in Rain Light Rain
6:53 AM 39.9 °F 37.8 °F 36.0 °F 86% 29.97 in 10.0 mi ESE 3.5 mph - N/A   Scattered Clouds
7:53 AM 42.1 °F 38.4 °F 36.0 °F 79% 29.98 in 10.0 mi ESE 5.8 mph - N/A   Clear
8:53 AM 45.0 °F 40.6 °F 37.9 °F 76% 30.00 in 10.0 mi ESE 8.1 mph - N/A   Mostly Cloudy
9:53 AM 48.9 °F - 39.0 °F 69% 29.98 in 10.0 mi ESE 6.9 mph - N/A   Partly Cloudy
10:53 AM 54.0 °F - 39.9 °F 59% 29.96 in 10.0 mi SSE 9.2 mph - N/A   Partly Cloudy
11:53 AM 57.0 °F - 41.0 °F 55% 29.94 in 10.0 mi SE 10.4 mph - N/A   Scattered Clouds
12:53 PM 61.0 °F - 42.1 °F 50% 29.92 in 10.0 mi SE 6.9 mph - N/A   Scattered Clouds
1:53 PM 64.0 °F - 44.1 °F 48% 29.90 in 10.0 mi SE 9.2 mph - N/A   Clear
2:53 PM 66.9 °F - 44.1 °F 44% 29.87 in 10.0 mi SE 10.4 mph - N/A   Clear
3:53 PM 69.1 °F - 43.0 °F 39% 29.84 in 10.0 mi SE 11.5 mph 18.4 mph N/A   Clear
4:53 PM 70.0 °F - 42.1 °F 36% 29.82 in 10.0 mi SE 11.5 mph - N/A   Clear
5:53 PM 70.0 °F - 41.0 °F 35% 29.81 in 10.0 mi SE 13.8 mph 20.7 mph N/A   Clear
6:53 PM 70.0 °F - 39.9 °F 33% 29.81 in 10.0 mi SSE 16.1 mph 23.0 mph N/A   Clear
7:53 PM 68.0 °F - 39.9 °F 36% 29.81 in 10.0 mi SSE 11.5 mph 21.9 mph N/A   Clear
8:53 PM 64.9 °F - 42.1 °F 43% 29.81 in 10.0 mi SE 8.1 mph - N/A   Clear
9:53 PM 64.0 °F - 42.1 °F 45% 29.82 in 10.0 mi SE 11.5 mph - N/A   Clear
10:53 PM 63.0 °F - 43.0 °F 48% 29.83 in 10.0 mi SE 8.1 mph - N/A   Clear
11:53 PM 61.0 °F - 44.1 °F 54% 29.83 in 10.0 mi SSE 9.2 mph - N/A   Clear